Columbus, OH

10:23 PM EST on December 17, 2017 (GMT -0500)
Port Columbus International

Weather History for KCMH - October, 2012

Change the Weather History Date:

Wednesday, October 17, 2012

  Actual Average Record
Temperature  
Mean Temperature 64 °F 55 °F  
Max Temperature 75 °F 65 °F 83 °F (1968)
Min Temperature 52 °F 45 °F 26 °F (1977)
Degree Days  
Heating Degree Days 1 11  
Month to date heating degree days 170 143  
Since 1 July heating degree days 256 212  
Cooling Degree Days 0 0  
Month to date cooling degree days 8 13  
Year to date cooling degree days 1429 1024  
Growing Degree Days 14 (Base 50)    
Moisture  
Dew Point 44 °F    
Average Humidity 50    
Maximum Humidity 64    
Minimum Humidity 35    
Precipitation  
Precipitation 0.00 in 0.08 in 1.54 in (2006)
Month to date precipitation 1.41 1.45  
Year to date precipitation 28.26 31.98  
Snow  
Snow 0.00 in 0.00 in - ()
Month to date snowfall 0.0 0.0  
Since 1 July snowfall 0.0 0.0  
Since 1 September snowfall 0.0 0.0  
Snow Depth 0.00 in    
Sea Level Pressure  
Sea Level Pressure 29.77 in    
Wind  
Wind Speed 9 mph (SSE)    
Max Wind Speed 20 mph    
Max Gust Speed 24 mph    
Visibility 10 miles    
Events      
T = Trace of Precipitation, MM = Missing Value Source: NWS Daily Summary

Daily Weather History Graph

Daily Weather History Graph

Search for Another Location

Airport or City:

Trip Planner

Search our weather history database for the weather conditions in past years. The results will help you decide how hot, cold, wet, or windy it might be!

Date:

Astronomy

Oct. 17, 2012 Rise Set
Actual Time 7:44 AM EDT 6:48 PM EDT
Civil Twilight 7:17 AM EDT 7:15 PM EDT
Nautical Twilight 6:45 AM EDT 7:47 PM EDT
Astronomical Twilight 6:14 AM EDT 8:18 PM EDT
Moon 10:17 AM EDT (10/17) 8:23 PM EDT (10/17)
Length of Visible Light 11h 58m
Length of Day
11h 03m
Waxing Crescent, 7% of the Moon is Illuminated
Oct 17
Waxing Crescent
Oct 21
First Quarter
Oct 29
Full
Nov 6
Last Quarter
Nov 13
New

Hourly Weather History & Observations

Time (EDT) Temp. Dew Point Humidity Pressure Visibility Wind Dir Wind Speed Gust Speed Precip Events Conditions
12:51 AM 52.0 °F 39.0 °F 61% 29.85 in 10.0 mi SSE 8.1 mph - N/A   Scattered Clouds
1:51 AM 53.1 °F 39.0 °F 59% 29.85 in 10.0 mi SSE 4.6 mph - N/A   Mostly Cloudy
2:51 AM 53.1 °F 39.9 °F 61% 29.85 in 10.0 mi SE 4.6 mph - N/A   Overcast
3:51 AM 53.1 °F 39.9 °F 61% 29.83 in 10.0 mi SE 5.8 mph - N/A   Overcast
4:51 AM 54.0 °F 39.9 °F 59% 29.82 in 10.0 mi SE 6.9 mph - N/A   Overcast
5:51 AM 54.0 °F 39.9 °F 59% 29.82 in 10.0 mi SE 5.8 mph - N/A   Overcast
6:51 AM 54.0 °F 39.9 °F 59% 29.83 in 10.0 mi SE 8.1 mph - N/A   Overcast
7:51 AM 53.1 °F 39.9 °F 61% 29.83 in 10.0 mi SSE 5.8 mph - N/A   Overcast
8:51 AM 53.6 °F 41.0 °F 62% 29.84 in 10.0 mi SSE 4.6 mph - N/A   Mostly Cloudy
9:51 AM 55.9 °F 42.1 °F 60% 29.85 in 10.0 mi South 6.9 mph - N/A   Mostly Cloudy
10:51 AM 60.8 °F 44.6 °F 55% 29.85 in 10.0 mi South 8.1 mph - N/A   Overcast
11:51 AM 64.0 °F 46.0 °F 52% 29.83 in 10.0 mi South 9.2 mph - N/A   Mostly Cloudy
12:51 PM 68.0 °F 48.0 °F 49% 29.81 in 10.0 mi South 6.9 mph - N/A   Mostly Cloudy
1:51 PM 73.0 °F 46.9 °F 39% 29.78 in 10.0 mi South 11.5 mph - N/A   Scattered Clouds
2:51 PM 73.0 °F 45.0 °F 37% 29.75 in 10.0 mi SSW 12.7 mph - N/A   Mostly Cloudy
3:51 PM 73.0 °F 45.0 °F 37% 29.73 in 10.0 mi South 12.7 mph 20.7 mph N/A   Mostly Cloudy
4:51 PM 73.9 °F 46.9 °F 38% 29.71 in 10.0 mi SSE 17.3 mph 24.2 mph N/A   Mostly Cloudy
5:51 PM 72.0 °F 46.9 °F 41% 29.69 in 10.0 mi South 11.5 mph - N/A   Mostly Cloudy
6:51 PM 70.0 °F 48.0 °F 46% 29.68 in 10.0 mi SSE 11.5 mph - N/A   Clear
7:51 PM 69.1 °F 48.9 °F 49% 29.68 in 10.0 mi SE 9.2 mph - N/A   Mostly Cloudy
8:51 PM 68.0 °F 48.9 °F 50% 29.67 in 10.0 mi SE 11.5 mph - N/A   Overcast
9:51 PM 66.0 °F 50.0 °F 56% 29.65 in 10.0 mi SE 10.4 mph - N/A   Overcast
10:51 PM 66.0 °F 48.9 °F 54% 29.63 in 10.0 mi SE 11.5 mph - N/A   Overcast
11:51 PM 64.9 °F 46.9 °F 52% 29.63 in 10.0 mi SSE 11.5 mph - N/A   Mostly Cloudy